Wind_Speed
25 26 28 30 30 18 15 14 14 12 11 9 9 8 8 9 9 7 6 10 7 13 7 4 6 16 21 9 13 14 2 6 5 10 7 8 9 9 10 15 8 9 19 26 35
26 27 29 30 32 18 17 18 15 13 12 10 8 7 6 8 7 12 13 9 9 4 6 10 10 12 5 9 6 6 2 4 6 7 7 8 4 5 8 18 21 19 21 35 33
27 28 29 31 34 20 18 16 12 11 10 11 9 6 3 5 4 6 6 17 13 9 10 14 22 10 8 7 13 7 1 5 6 7 6 4 7 4 10 8 23 27 25 24 28
28 29 30 31 34 22 17 15 13 12 10 7 9 7 2 2 3 0 8 16 11 8 6 7 9 8 7 7 10 3 7 6 5 5 4 3 3 9 10 3 25 26 27 22 20
30 30 31 32 34 25 16 15 12 11 9 5 6 7 3 3 7 5 8 9 9 9 9 9 10 8 9 9 12 5 4 6 7 8 4 4 8 9 5 6 20 25 24 23 19
31 32 32 33 34 28 17 16 9 9 8 4 3 11 1 4 4 5 8 11 8 10 12 14 8 10 7 9 7 8 5 7 6 5 3 4 5 9 1 10 11 23 21 22 21
32 33 33 33 33 31 19 15 6 6 6 4 7 5 4 9 5 8 7 10 12 15 11 21 14 6 9 10 8 8 5 8 8 7 4 3 8 5 3 14 13 9 8 16 18
32 33 33 33 33 32 20 11 4 3 3 4 4 1 6 6 14 11 12 14 16 12 21 16 11 6 6 10 11 10 5 3 7 7 5 8 3 5 12 16 12 12 7 9 8
33 33 34 33 32 31 18 10 5 3 2 1 1 3 7 8 8 12 17 18 16 15 16 10 7 5 9 7 7 6 8 6 5 3 3 6 6 7 14 16 12 11 11 9 9
33 33 34 32 30 32 20 13 5 3 3 3 9 5 6 8 12 15 12 12 7 8 5 4 3 4 5 2 5 6 7 8 8 6 3 5 8 6 12 15 12 12 12 11 11
33 34 35 32 28 32 23 2 1 1 7 9 3 6 6 17 11 13 14 8 7 3 6 9 3 7 13 10 3 7 7 7 5 7 5 4 8 9 10 15 14 13 12 10 9
33 34 34 32 30 20 14 3 4 6 8 12 18 19 6 13 6 8 15 6 5 8 8 4 9 11 3 4 4 7 8 7 1 9 7 5 6 9 9 14 16 15 13 12 9
33 34 34 32 25 8 11 3 7 10 4 8 15 14 5 7 9 10 12 8 8 8 11 9 8 4 2 5 5 4 5 4 3 6 3 4 7 7 7 13 15 15 15 13 12
33 34 32 36 6 21 8 10 9 5 2 6 8 7 10 7 7 10 17 9 7 10 9 5 4 5 5 6 1 7 9 9 9 8 3 3 5 5 10 9 13 13 12 12 11
34 34 30 24 16 8 11 15 11 3 3 12 8 6 11 9 4 10 21 8 13 11 1 8 3 7 3 4 7 3 7 7 7 7 4 10 0 2 13 10 14 14 14 14 12
36 33 32 10 14 14 21 20 14 1 6 10 7 7 9 9 9 10 7 7 5 7 8 7 2 3 3 5 4 4 6 8 7 4 3 15 8 2 9 12 10 13 14 14 12
39 30 29 17 7 11 13 8 0 4 9 8 9 10 10 9 12 10 7 6 4 2 6 9 10 7 4 4 6 6 4 4 6 5 3 10 5 6 6 14 17 14 10 9 13
40 30 15 18 15 11 16 3 4 9 9 7 10 13 10 11 12 13 10 7 10 9 5 5 9 10 6 5 1 3 3 4 2 3 6 7 3 4 14 14 11 12 10 10 9
36 17 12 16 6 8 1 3 6 5 13 10 5 3 10 13 11 10 11 12 10 11 9 2 2 11 8 5 6 4 3 4 2 4 3 4 5 8 13 10 10 9 10 9 9
26 11 11 15 20 12 1 5 6 9 13 9 5 4 4 7 6 7 5 6 8 3 9 2 2 3 6 8 1 5 4 4 4 2 5 5 2 5 6 7 7 8 8 8 8
7 4 3 11 12 1 4 6 9 17 1 4 6 9 10 9 9 4 10 9 9 6 9 5 4 8 6 3 8 0 1 4 4 4 1 3 2 5 7 8 7 7 10 9 9
9 3 13 9 2 3 6 7 6 14 5 1 3 8 8 10 9 7 4 4 8 8 9 3 3 2 9 7 8 2 8 5 5 6 2 2 5 8 9 8 10 9 9 8 8
6 4 10 8 3 6 10 18 19 8 6 3 4 6 9 6 5 6 6 6 10 7 3 5 2 2 8 8 6 3 2 5 1 3 5 4 5 3 6 7 8 9 8 8 7
4 4 3 2 5 7 9 12 15 7 3 8 7 8 7 6 6 5 5 5 12 6 6 6 2 4 5 5 6 5 8 4 7 3 5 6 5 9 6 9 8 8 8 7 5
3 3 4 4 4 11 7 10 10 9 7 3 4 6 8 5 7 6 7 5 8 9 5 5 2 3 5 9 10 9 10 10 7 6 4 7 6 2 7 8 7 7 7 7 7
3 5 6 8 9 9 9 5 8 13 5 5 7 8 8 4 5 6 6 6 6 2 5 4 3 3 5 7 9 12 12 12 12 10 9 9 6 9 7 8 8 7 7 5 8
11 10 4 7 7 7 6 7 12 10 12 9 5 3 13 9 9 8 8 7 4 6 5 6 3 2 3 6 9 7 7 10 11 9 6 2 5 6 8 8 8 9 8 8 7
Wind_Direction
7 6 3 2 1 353 347 338 324 314 307 302 295 292 288 291 295 279 238 223 254 233 292 298 246 255 260 248 257 264 314 288 49 41 10 19 28 347 61 133 210 176 137 141 149
5 4 4 2 1 351 345 332 318 303 291 285 285 284 296 314 307 251 245 219 224 219 230 238 247 234 259 261 253 197 173 322 58 52 26 351 18 295 54 90 88 103 118 139 149
3 3 2 1 0 351 349 345 343 332 308 268 255 258 290 331 285 236 204 212 227 241 241 262 295 285 274 282 270 261 244 328 35 65 38 309 330 48 67 78 130 135 142 147 151
2 2 1 0 360 355 351 346 345 340 325 296 238 229 247 30 29 198 165 196 216 222 209 267 276 279 279 272 287 196 329 318 21 4 21 25 331 70 66 57 138 143 147 149 156
359 359 359 359 359 356 351 346 340 343 332 309 228 190 146 212 251 189 170 185 180 166 210 236 255 266 269 301 326 335 344 17 358 57 11 350 72 90 48 62 126 142 149 154 159
358 357 357 357 357 357 349 343 334 347 354 0 178 161 191 262 177 175 176 163 167 168 218 248 255 262 285 286 290 290 25 312 282 139 228 148 110 85 319 81 69 145 156 161 164
354 353 353 354 353 356 347 340 329 355 19 53 136 124 270 262 149 125 163 165 176 193 230 231 258 321 311 308 305 303 305 267 250 192 197 92 78 119 120 79 69 62 124 161 173
350 350 349 350 349 351 347 347 322 349 30 72 127 42 247 192 154 165 191 192 195 220 241 289 300 253 280 283 300 296 273 268 193 192 162 102 141 102 97 89 69 43 84 73 84
346 346 344 345 345 345 344 339 295 321 316 287 243 206 276 185 211 197 211 211 200 217 249 266 351 280 290 272 294 272 253 174 176 141 133 125 144 120 110 103 95 82 60 54 25
343 342 341 340 341 339 336 324 269 288 299 303 269 293 266 211 205 194 227 260 211 213 218 203 239 230 285 267 256 307 340 126 146 181 123 34 142 120 126 115 114 96 84 66 44
341 339 338 336 335 335 331 0 36 254 239 219 221 221 165 221 174 191 199 228 258 241 228 218 182 234 239 214 329 337 347 358 78 118 100 299 155 149 126 122 121 116 107 93 78
340 339 336 332 331 327 313 245 50 275 297 257 246 262 213 147 176 204 178 200 214 242 242 275 235 253 347 35 12 331 316 307 147 125 104 277 274 166 135 142 139 131 122 119 99
340 338 335 330 327 333 284 355 310 299 260 275 222 235 180 166 238 191 159 216 248 236 243 221 248 123 14 320 258 302 305 24 28 359 355 216 287 129 122 113 124 126 129 121 117
338 337 336 334 335 330 295 2 352 334 299 248 181 209 204 192 246 199 173 204 223 233 271 216 119 43 339 288 12 70 8 8 353 6 281 66 278 144 142 136 127 125 121 125 124
336 334 331 335 300 304 325 338 330 306 319 144 173 199 154 183 194 149 172 227 258 290 327 261 162 147 243 8 57 326 12 329 295 284 291 283 126 204 139 149 136 133 132 136 137
330 331 327 334 302 267 314 309 302 345 247 171 137 170 164 213 256 150 159 223 293 299 313 259 296 76 354 34 38 348 300 295 273 213 269 255 184 240 166 168 134 130 135 139 134
326 325 313 286 239 323 323 308 258 228 148 155 167 166 190 189 240 147 182 197 216 247 268 282 246 179 151 18 302 215 10 342 352 0 229 284 70 182 177 148 141 134 132 144 141
327 323 300 267 275 293 292 337 248 269 262 196 163 163 183 204 215 179 171 200 217 229 263 255 317 147 133 193 68 327 113 147 298 330 291 345 354 220 101 98 109 124 144 122 124
330 329 276 263 246 227 303 254 224 201 340 345 126 195 202 203 210 183 186 197 221 202 184 241 58 70 150 128 118 356 352 248 16 314 11 250 42 64 112 120 130 122 98 101 113
330 309 263 228 219 208 188 251 297 318 293 2 355 331 264 273 226 155 181 213 231 205 109 54 56 252 198 94 148 180 222 15 340 288 277 326 79 157 104 114 114 118 128 120 99
318 291 214 160 166 159 220 251 277 285 102 28 327 315 304 310 318 209 207 220 260 124 93 67 97 298 111 174 212 327 192 241 141 113 207 356 289 136 124 127 136 93 87 94 84
323 280 162 185 144 206 227 249 265 290 121 115 271 275 294 308 327 314 334 77 4 131 129 111 124 229 227 297 315 173 187 140 113 301 302 151 270 140 156 153 107 116 108 99 94
315 276 300 209 228 236 259 260 259 243 296 284 267 231 279 290 327 338 17 64 45 52 58 337 333 5 330 333 339 275 179 106 111 135 234 155 258 183 105 90 129 127 133 122 110
286 292 254 208 224 265 297 292 294 168 224 301 336 338 336 288 274 320 323 137 80 102 96 71 12 157 195 227 285 303 309 197 187 154 227 217 237 311 76 90 66 62 94 111 104
240 269 4 346 356 329 307 273 318 309 151 179 285 270 290 312 334 295 291 117 123 169 130 111 186 310 307 305 304 308 312 317 309 238 210 248 274 277 107 97 90 87 73 67 59
300 356 337 300 302 311 301 326 313 308 332 245 199 255 269 309 334 332 25 347 203 179 133 155 224 252 275 291 299 292 285 283 275 278 285 282 270 131 109 89 64 44 37 22 83
350 343 302 299 315 321 279 287 297 281 291 291 350 6 48 25 356 320 302 298 44 135 155 153 142 99 253 337 335 310 284 286 287 272 237 85 138 112 82 79 73 52 34 86 77
Height
793 788 783 778 772 768 765 763 761 759 757 756 755 755 754 753 753 752 750 744 745 745 747 748 748 744 742 741 736 731 774 778 757 751 748 726 731 711 706 735 731 725 734 747 758
792 787 782 777 772 767 765 761 758 756 755 754 754 753 753 753 752 748 738 741 743 744 746 747 744 740 744 739 736 747 768 755 733 733 740 729 726 722 725 730 734 737 741 750 759
791 786 782 777 771 766 763 759 756 754 752 751 752 752 753 753 753 736 732 737 741 743 744 744 742 738 745 737 733 733 754 733 728 726 724 730 729 716 730 742 737 745 748 752 758
791 786 781 776 770 765 762 758 755 753 751 749 749 751 753 754 760 732 732 736 739 741 744 744 740 746 750 752 729 741 727 726 724 720 724 730 719 731 728 728 725 733 740 750 758
790 785 780 774 769 764 761 758 755 752 750 748 748 751 753 755 743 733 733 736 738 740 742 742 743 743 754 741 731 733 729 724 721 722 722 721 732 732 731 720 723 733 740 747 754
788 783 778 773 768 763 760 757 754 752 750 748 748 751 753 757 732 732 733 735 738 740 740 738 737 733 738 738 741 726 727 729 723 723 721 732 732 731 728 722 727 735 741 743 747
787 781 776 771 766 762 758 755 754 752 751 750 750 752 751 743 730 733 734 735 736 737 736 732 731 735 736 743 721 725 742 735 730 727 729 722 748 744 726 726 735 737 738 743 748
786 780 775 769 764 760 757 754 753 753 752 752 753 753 750 730 730 733 733 733 734 734 734 731 729 731 737 729 732 743 743 769 733 724 725 733 771 736 729 734 743 743 741 744 753
785 779 773 768 763 757 755 753 753 753 753 753 754 753 747 729 730 730 730 731 731 732 731 731 731 739 738 756 767 752 776 761 748 719 725 738 763 738 730 737 747 751 751 749 749
783 778 771 766 761 756 753 751 751 752 753 754 754 759 737 731 726 728 729 729 729 728 733 735 742 757 755 768 799 770 760 750 757 738 729 747 755 738 735 739 749 753 756 757 757
782 776 770 764 759 755 750 751 754 757 751 743 736 730 719 721 723 726 728 728 727 731 755 742 764 775 758 748 738 742 750 753 737 729 738 747 755 745 739 741 751 755 759 763 764
781 774 768 761 756 753 751 751 747 748 754 729 726 724 717 718 730 724 725 737 738 757 743 755 771 740 726 727 737 745 755 757 736 729 740 747 754 741 736 743 746 753 760 763 766
779 773 767 759 752 751 749 746 744 743 754 727 715 719 717 718 726 726 723 730 742 751 747 761 744 722 729 738 745 749 758 755 755 740 736 747 764 755 741 740 743 749 755 759 765
778 772 767 758 754 751 746 744 743 742 773 737 723 716 714 717 730 711 715 725 733 746 737 739 724 731 738 743 738 773 741 745 751 766 795 749 809 767 754 754 750 753 756 760 764
776 771 767 766 760 754 746 744 743 742 803 721 718 699 707 725 714 716 711 721 743 739 734 752 738 740 746 743 736 756 741 751 753 769 771 769 792 770 751 765 758 756 757 760 762
772 769 763 763 759 748 746 743 742 779 791 729 711 721 727 722 719 713 719 715 716 734 731 734 715 725 733 729 732 732 747 754 756 771 806 766 778 784 769 757 759 754 752 755 758
767 762 760 760 753 748 745 742 778 789 709 728 730 721 729 735 729 725 735 744 759 769 770 744 736 723 722 745 738 743 771 816 817 816 810 762 767 766 743 741 743 753 754 752 756
761 756 751 749 747 748 747 761 787 739 726 697 708 716 736 726 728 726 738 754 739 746 764 775 781 736 726 743 755 755 767 815 825 827 808 754 777 767 737 737 743 747 750 751 756
757 751 747 741 743 745 754 782 762 734 716 716 707 725 734 719 721 726 735 742 731 732 769 763 764 726 726 727 742 759 784 760 792 783 806 784 762 753 744 750 749 752 753 757 758
759 752 739 734 740 743 762 771 745 722 713 714 737 723 738 727 728 727 730 717 722 711 718 740 774 736 729 729 733 749 747 796 800 820 822 797 779 791 766 763 755 755 755 757 756
762 754 728 731 737 748 773 754 733 711 706 724 733 739 734 734 727 728 730 714 707 714 716 730 756 764 742 753 762 760 772 770 783 797 820 826 805 759 764 758 756 754 759 760 760
769 763 730 731 752 750 758 740 722 717 708 717 721 730 735 730 735 728 727 719 705 709 736 727 753 780 766 738 730 733 758 767 811 808 801 804 808 746 749 747 753 758 758 757 757
780 760 730 730 762 755 737 730 719 717 719 721 725 721 721 732 747 727 720 713 709 725 745 740 767 793 780 762 741 749 742 748 764 783 804 819 812 745 746 749 752 756 756 757 758
785 766 739 730 732 743 748 740 730 705 716 717 726 720 727 733 725 732 728 718 718 727 731 733 759 778 805 785 767 769 756 749 766 798 795 794 779 764 761 762 760 760 759 759 758
781 761 756 755 745 746 739 735 734 731 714 715 728 729 736 746 741 739 727 725 727 732 729 745 773 762 763 759 757 761 760 757 768 769 783 777 770 759 765 764 760 758 757 759 759
782 777 766 764 750 748 742 739 737 728 727 729 734 727 729 742 741 749 740 737 734 732 739 742 774 760 772 758 760 766 757 756 756 755 759 759 763 755 753 752 756 757 756 757 763
788 783 778 765 756 756 745 739 736 728 722 717 721 727 743 741 734 732 728 727 728 737 747 755 765 775 787 767 770 786 766 759 755 747 748 768 763 753 757 757 760 761 759 764 763